| time (UTC) | temp C | wind direction | speed KPH | gust KPH | rain 1hr cm | rain 24hr cm | rain mn cm | humidity % | barometer mb |
| 20260902173031 | 21 | 131 | 0.0 | 1.6 | 0.00 | 0.00 | 0.00 | 49 | 1010.7 |
| 20260902171529 | 19 | 206 | 0.0 | 0.0 | 0.00 | 0.00 | 0.00 | 54 | 1011.0 |
| 20260902170030 | -17 | 0 | 0.0 | 0.0 | 0.00 | 0.00 | 0.00 | 100 | |
| 20260902164529 | -17 | 0 | 0.0 | 0.0 | 0.00 | 0.00 | 0.00 | 100 | |
| 20260902163106 | 14 | 225 | 3.2 | 3.2 | 0.00 | 0.00 | 0.00 | 73 | 1012.0 |
| 20260902161531 | -17 | 0 | 0.0 | 0.0 | 0.00 | 0.00 | 0.00 | 100 | |
| 20260902160030 | -17 | 0 | 0.0 | 0.0 | 0.00 | 0.00 | 0.00 | 100 | |
| 20260902150035 | 11 | 227 | 1.6 | 6.4 | 0.00 | 0.00 | 0.00 | 84 | 1012.5 |
| 20260902144706 | -17 | 0 | 0.0 | 0.0 | 0.00 | 0.00 | 0.00 | 100 | |
| 20260902141606 | 8 | 230 | 1.6 | 4.8 | 0.00 | 0.00 | 0.00 | 88 | 1012.6 |
| 20260902140031 | 8 | 231 | 3.2 | 6.4 | 0.00 | 0.00 | 0.00 | 89 | 1012.6 |
| 20260902134604 | 8 | 227 | 4.8 | 6.4 | 0.00 | 0.00 | 0.00 | 88 | 1012.6 |
| 20260902133032 | 8 | 225 | 3.2 | 4.8 | 0.00 | 0.00 | 0.00 | 88 | 1012.7 |
| 20260902131532 | 8 | 221 | 3.2 | 4.8 | 0.00 | 0.00 | 0.00 | 88 | 1012.8 |
| 20260902124529 | 9 | 223 | 1.6 | 4.8 | 0.00 | 0.00 | 0.00 | 87 | 1012.9 |
| 20260902123033 | 10 | 226 | 3.2 | 6.4 | 0.00 | 0.00 | 0.00 | 87 | 1012.9 |
| 20260902121531 | 10 | 228 | 1.6 | 6.4 | 0.00 | 0.00 | 0.00 | 87 | 1013.0 |
| 20260902114604 | 10 | 232 | 1.6 | 6.4 | 0.00 | 0.00 | 0.00 | 86 | 1013.0 |
| 20260902113122 | 10 | 225 | 1.6 | 4.8 | 0.00 | 0.00 | 0.00 | 86 | 1013.0 |
| 20260902111540 | 10 | 225 | 1.6 | 4.8 | 0.00 | 0.00 | 0.00 | 85 | 1013.1 |
| 20260902110039 | 10 | 225 | 3.2 | 4.8 | 0.00 | 0.00 | 0.00 | 84 | 1013.1 |
| 20260902104539 | 11 | 240 | 1.6 | 6.4 | 0.00 | 0.00 | 0.00 | 83 | 1012.9 |
| 20260902103040 | 11 | 278 | 0.0 | 3.2 | 0.00 | 0.00 | 0.00 | 81 | 1012.9 |
| 20260902101541 | 12 | 274 | 0.0 | 3.2 | 0.00 | 0.00 | 0.00 | 81 | 1013.0 |
| 20260902100040 | 12 | 316 | 0.0 | 3.2 | 0.00 | 0.00 | 0.00 | 81 | 1012.9 |
| 20260902094540 | 12 | 298 | 0.0 | 3.2 | 0.00 | 0.00 | 0.00 | 80 | 1013.0 |
| 20260902093038 | 12 | 279 | 0.0 | 3.2 | 0.00 | 0.00 | 0.00 | 78 | 1013.1 |
| 20260902091541 | 13 | 28 | 0.0 | 3.2 | 0.00 | 0.00 | 0.00 | 77 | 1013.0 |
| 20260902090044 | 13 | 25 | 0.0 | 6.4 | 0.00 | 0.00 | 0.00 | 77 | 1013.0 |
| 20260902084540 | 13 | 23 | 0.0 | 6.4 | 0.00 | 0.00 | 0.00 | 77 | 1013.1 |
| 20260902083039 | 13 | 35 | 0.0 | 6.4 | 0.00 | 0.00 | 0.00 | 77 | 1012.9 |
| 20260902081538 | 13 | 36 | 1.6 | 6.4 | 0.00 | 0.00 | 0.00 | 75 | 1013.0 |
| 20260902080039 | 13 | 32 | 0.0 | 6.4 | 0.00 | 0.00 | 0.00 | 74 | 1013.0 |
| 20260902074540 | 14 | 37 | 0.0 | 6.4 | 0.00 | 0.00 | 0.00 | 73 | 1013.1 |
| 20260902073040 | 14 | 44 | 1.6 | 8.0 | 0.00 | 0.00 | 0.00 | 73 | 1013.3 |
| 20260902071540 | 14 | 35 | 1.6 | 9.7 | 0.00 | 0.00 | 0.00 | 73 | 1013.2 |
| 20260902070038 | 15 | 43 | 0.0 | 6.4 | 0.00 | 0.00 | 0.00 | 72 | 1013.4 |
| 20260902064542 | 15 | 41 | 0.0 | 6.4 | 0.00 | 0.00 | 0.00 | 70 | 1013.5 |
| 20260902063039 | 15 | 42 | 1.6 | 11.3 | 0.00 | 0.00 | 0.00 | 70 | 1013.2 |
| 20260902061542 | 15 | 34 | 1.6 | 11.3 | 0.00 | 0.00 | 0.00 | 69 | 1013.3 |
| 20260902060124 | 15 | 47 | 1.6 | 8.0 | 0.00 | 0.00 | 0.00 | 69 | 1013.2 |
| 20260902054539 | 15 | 35 | 1.6 | 9.7 | 0.00 | 0.00 | 0.00 | 68 | 1013.5 |
| 20260902053040 | 15 | 37 | 0.0 | 6.4 | 0.00 | 0.00 | 0.00 | 67 | 1013.4 |
| 20260902051538 | 15 | 55 | 1.6 | 11.3 | 0.00 | 0.00 | 0.00 | 67 | 1013.0 |
| 20260902050038 | 15 | 51 | 1.6 | 14.5 | 0.00 | 0.00 | 0.00 | 67 | 1012.9 |
| 20260902043039 | 15 | 49 | 1.6 | 14.5 | 0.00 | 0.00 | 0.00 | 69 | 1012.7 |
| 20260902041540 | 16 | 46 | 1.6 | 9.7 | 0.00 | 0.00 | 0.00 | 67 | 1012.4 |
| 20260902040038 | 16 | 46 | 3.2 | 11.3 | 0.00 | 0.00 | 0.00 | 63 | 1012.1 |
| 20260902034539 | 16 | 46 | 4.8 | 19.3 | 0.00 | 0.00 | 0.00 | 62 | 1011.9 |
| 20260902033120 | 16 | 50 | 3.2 | 14.5 | 0.00 | 0.00 | 0.00 | 62 | 1011.8 |
| 20260902031538 | 17 | 49 | 4.8 | 14.5 | 0.00 | 0.00 | 0.00 | 61 | 1011.4 |
| 20260902030031 | 17 | 51 | 3.2 | 11.3 | 0.00 | 0.00 | 0.00 | 60 | 1011.5 |
| 20260902024530 | 17 | 47 | 3.2 | 16.1 | 0.00 | 0.00 | 0.00 | 58 | 1011.5 |
| 20260902023032 | 17 | 47 | 3.2 | 17.7 | 0.00 | 0.00 | 0.00 | 58 | 1011.4 |
| 20260902021533 | 17 | 39 | 4.8 | 17.7 | 0.00 | 0.00 | 0.00 | 57 | 1011.3 |
| 20260902020030 | 17 | 39 | 4.8 | 22.5 | 0.00 | 0.00 | 0.00 | 56 | 1011.1 |
| 20260902014531 | 18 | 46 | 3.2 | 11.3 | 0.00 | 0.00 | 0.00 | 56 | 1011.0 |
| 20260902013033 | 18 | 48 | 3.2 | 14.5 | 0.00 | 0.00 | 0.00 | 55 | 1010.8 |
| 20260902010030 | 18 | 45 | 4.8 | 16.1 | 0.00 | 0.00 | 0.00 | 55 | 1010.3 |
| 20260902001537 | 20 | 44 | 4.8 | 17.7 | 0.00 | 0.00 | 0.00 | 50 | 1010.3 |
| 20260902000032 | 21 | 47 | 4.8 | 14.5 | 0.00 | 0.00 | 0.00 | 50 | 1010.3 |
| 20260901234532 | 21 | 41 | 3.2 | 17.7 | 0.00 | 0.00 | 0.00 | 50 | 1010.3 |
| 20260901233106 | 20 | 46 | 4.8 | 12.9 | 0.00 | 0.00 | 0.00 | 51 | 1010.5 |
| 20260901231533 | 21 | 48 | 3.2 | 14.5 | 0.00 | 0.00 | 0.00 | 49 | 1010.4 |
| 20260901230031 | 21 | 42 | 4.8 | 20.9 | 0.00 | 0.00 | 0.00 | 47 | 1010.4 |
| 20260901224532 | 22 | 48 | 4.8 | 19.3 | 0.00 | 0.00 | 0.00 | 45 | 1010.3 |
| 20260901223107 | 23 | 49 | 4.8 | 17.7 | 0.00 | 0.00 | 0.00 | 44 | 1010.3 |
| 20260901221650 | 24 | 40 | 4.8 | 12.9 | 0.00 | 0.00 | 0.00 | 43 | 1010.2 |
| 20260901220041 | 24 | 36 | 4.8 | 14.5 | 0.00 | 0.00 | 0.00 | 42 | 1010.0 |
| 20260901213030 | 25 | 35 | 3.2 | 14.5 | 0.00 | 0.00 | 0.00 | 42 | 1010.2 |
| 20260901210105 | 25 | 49 | 3.2 | 8.0 | 0.00 | 0.00 | 0.00 | 41 | 1010.3 |
| 20260901204531 | 25 | 46 | 1.6 | 9.7 | 0.00 | 0.00 | 0.00 | 41 | 1010.6 |
| 20260901203031 | 25 | 41 | 3.2 | 14.5 | 0.00 | 0.00 | 0.00 | 40 | 1010.7 |
| 20260901201530 | 25 | 40 | 1.6 | 9.7 | 0.00 | 0.00 | 0.00 | 40 | 1010.9 |
| 20260901194531 | 25 | 38 | 1.6 | 8.0 | 0.00 | 0.00 | 0.00 | 41 | 1011.3 |
| 20260901193030 | 25 | 45 | 1.6 | 6.4 | 0.00 | 0.00 | 0.00 | 41 | 1011.5 |
| 20260901191531 | 25 | 56 | 1.6 | 11.3 | 0.00 | 0.00 | 0.00 | 43 | 1011.7 |
| 20260901190106 | 23 | 44 | 1.6 | 9.7 | 0.00 | 0.00 | 0.00 | 45 | 1011.8 |
| 20260901183034 | 22 | 18 | 0.0 | 4.8 | 0.00 | 0.00 | 0.00 | 48 | 1012.0 |
| 20260901181530 | 21 | 45 | 0.0 | 4.8 | 0.00 | 0.00 | 0.00 | 51 | 1012.1 |
| 20260901180108 | 21 | 43 | 1.6 | 14.5 | 0.00 | 0.00 | 0.00 | 53 | 1012.1 |
| 20260901174531 | 20 | 49 | 1.6 | 8.0 | 0.00 | 0.00 | 0.00 | 56 | 1012.0 |